Tracking 29892 objects as of 21-Nov-2024
HD Live streaming from Space Station
objects crossing your sky now

OBJECT C

Track OBJECT C now!
10-day predictions


NORAD ID: 52718
Int'l Code: 2022-056C
Perigee: 875.8 km
Apogee: 897.9 km
Inclination: 86.0 °
Period: 102.6 minutes
Semi major axis: 7257 km
RCS: Unknown
Launch date: May 20, 2022
Source: People's Republic of China (PRC)
Launch site: Jiuquan Satellite Launch Center, China (JSC)

Note: This is a ROCKET BODY
Your satellite tracking list
Your tracking list is empty




NASA's NSSDC Master Catalog

Two Line Element Set (TLE):
1 52718U 22056C   24326.11858571  .00000413  00000-0  24937-3 0  9997
2 52718  86.0010 276.5075 0015235 355.9995   4.1059 14.04087217128467
Source of the keplerian elements: AFSPC